TimeIST,TemperatureF,Dew PointF,Humidity,Sea Level PressureIn,VisibilityMPH,Wind Direction,Wind SpeedMPH,Gust SpeedMPH,PrecipitationIn,Events,Conditions,WindDirDegrees,DateUTC
12:00 AM,62.6,59.0,88,30.15,6.2,SSW,9.2,-,N/A,,Mostly Cloudy,200,2013-10-06 23:00:00
12:30 AM,62.6,59.0,88,30.15,6.2,SSW,9.2,-,N/A,,Mostly Cloudy,210,2013-10-06 23:30:00
1:00 AM,62,60,89,30.15,19,South,8.9,,,,Partly Cloudy,190,2013-10-07 00:00:00
1:00 AM,62.6,59.0,88,30.15,6.2,South,8.1,-,N/A,,Mostly Cloudy,190,2013-10-07 00:00:00
1:30 AM,62.6,59.0,88,30.12,6.2,SSW,8.1,-,N/A,,Mostly Cloudy,210,2013-10-07 00:30:00
2:00 AM,62.6,59.0,88,30.12,6.2,SSW,10.4,-,N/A,,Mostly Cloudy,210,2013-10-07 01:00:00
2:30 AM,62.6,59.0,88,30.12,6.2,SSW,8.1,-,N/A,,Mostly Cloudy,210,2013-10-07 01:30:00
3:00 AM,62.6,59.0,88,30.12,6.2,SSW,8.1,-,N/A,,Mostly Cloudy,210,2013-10-07 02:00:00
3:30 AM,62.6,57.2,82,30.12,6.2,SSW,6.9,-,N/A,,Mostly Cloudy,200,2013-10-07 02:30:00
4:00 AM,62.6,57.2,82,30.12,6.2,South,6.9,-,N/A,,Mostly Cloudy,190,2013-10-07 03:00:00
4:30 AM,62.6,57.2,82,30.12,6.2,SSW,9.2,-,N/A,,Mostly Cloudy,210,2013-10-07 03:30:00
5:00 AM,62.6,57.2,82,30.12,6.2,SSW,9.2,-,N/A,,Mostly Cloudy,200,2013-10-07 04:00:00
5:30 AM,62.6,57.2,82,30.12,6.2,SSW,9.2,-,N/A,,Mostly Cloudy,210,2013-10-07 04:30:00
6:00 AM,62.6,57.2,82,30.12,6.2,SW,13.8,-,N/A,,Mostly Cloudy,230,2013-10-07 05:00:00
6:30 AM,60.8,57.2,88,30.12,6.2,SW,15.0,-,N/A,,Mostly Cloudy,220,2013-10-07 05:30:00
7:00 AM,60.8,57.2,88,30.12,6.2,SW,13.8,-,N/A,,Mostly Cloudy,220,2013-10-07 06:00:00
7:30 AM,60.8,57.2,88,30.12,6.2,SW,12.7,-,N/A,,Mostly Cloudy,220,2013-10-07 06:30:00
8:00 AM,60.8,55.4,82,30.12,6.2,SW,13.8,-,N/A,,Mostly Cloudy,220,2013-10-07 07:00:00
8:30 AM,60.8,55.4,82,30.12,6.2,SSW,12.7,-,N/A,,Mostly Cloudy,210,2013-10-07 07:30:00
9:00 AM,62.6,55.4,77,30.09,6.2,SSW,12.7,-,N/A,,Mostly Cloudy,210,2013-10-07 08:00:00
9:30 AM,62.6,55.4,77,30.09,6.2,SSW,12.7,-,N/A,,Mostly Cloudy,210,2013-10-07 08:30:00
10:00 AM,62.6,53.6,72,30.12,6.2,SSW,13.8,-,N/A,,Mostly Cloudy,210,2013-10-07 09:00:00
10:30 AM,62.6,53.6,72,30.09,6.2,SSW,13.8,-,N/A,,Mostly Cloudy,200,2013-10-07 09:30:00
11:00 AM,64.4,55.4,73,30.12,6.2,SSW,15.0,-,N/A,,Mostly Cloudy,200,2013-10-07 10:00:00
11:30 AM,64.4,55.4,73,30.12,6.2,SSW,12.7,-,N/A,,Mostly Cloudy,200,2013-10-07 10:30:00
12:00 PM,64.4,55.4,73,30.12,6.2,SSW,13.8,-,N/A,,Mostly Cloudy,200,2013-10-07 11:00:00
12:30 PM,64.4,55.4,73,30.12,6.2,SSW,15.0,-,N/A,,Mostly Cloudy,210,2013-10-07 11:30:00
1:00 PM,64,55,64,30.12,25,SSW,17.9,,,,Scattered Clouds,200,2013-10-07 12:00:00
1:00 PM,64.4,55.4,73,30.12,6.2,SSW,17.3,-,N/A,,Mostly Cloudy,200,2013-10-07 12:00:00
1:30 PM,64.4,55.4,73,30.09,6.2,SSW,13.8,-,N/A,,Mostly Cloudy,200,2013-10-07 12:30:00
2:00 PM,64.4,55.4,73,30.09,6.2,SSW,13.8,-,N/A,,Mostly Cloudy,200,2013-10-07 13:00:00
2:30 PM,64.4,55.4,73,30.09,6.2,SSW,16.1,-,N/A,,Mostly Cloudy,200,2013-10-07 13:30:00
3:00 PM,64.4,55.4,73,30.09,6.2,SSW,16.1,-,N/A,,Mostly Cloudy,210,2013-10-07 14:00:00
3:30 PM,64.4,55.4,73,30.06,6.2,SSW,17.3,-,N/A,,Mostly Cloudy,210,2013-10-07 14:30:00
4:00 PM,64.4,57.2,77,30.06,6.2,SSW,13.8,-,N/A,,Mostly Cloudy,200,2013-10-07 15:00:00
4:30 PM,64.4,57.2,77,30.06,6.2,SSW,15.0,26.5,N/A,,Mostly Cloudy,200,2013-10-07 15:30:00
5:00 PM,64.4,57.2,77,30.06,6.2,SSW,16.1,-,N/A,,Mostly Cloudy,200,2013-10-07 16:00:00
5:30 PM,66.2,57.2,73,30.06,6.2,SSW,13.8,-,N/A,,Mostly Cloudy,210,2013-10-07 16:30:00
6:00 PM,64.4,57.2,77,30.06,6.2,SSW,17.3,-,N/A,,Scattered Clouds,210,2013-10-07 17:00:00
6:30 PM,62.6,57.2,82,30.06,6.2,SSW,12.7,-,N/A,,Scattered Clouds,210,2013-10-07 17:30:00
7:00 PM,63,56,72,30.07,25,SSW,13.4,,,,Scattered Clouds,210,2013-10-07 18:00:00
7:00 PM,62.6,57.2,82,30.06,6.2,SSW,12.7,-,N/A,,Scattered Clouds,210,2013-10-07 18:00:00
7:30 PM,62.6,57.2,82,30.06,6.2,SSW,16.1,-,N/A,Rain,Light Rain,210,2013-10-07 18:30:00
8:00 PM,62.6,55.4,77,30.06,6.2,SW,17.3,-,N/A,,Scattered Clouds,220,2013-10-07 19:00:00
8:30 PM,62.6,55.4,77,30.06,6.2,SW,20.7,-,N/A,,Mostly Cloudy,220,2013-10-07 19:30:00
9:00 PM,62.6,57.2,82,30.06,6.2,SW,20.7,33.4,N/A,,Mostly Cloudy,220,2013-10-07 20:00:00
9:30 PM,62.6,57.2,82,30.06,6.2,SW,19.6,-,N/A,,Mostly Cloudy,220,2013-10-07 20:30:00
10:00 PM,62.6,57.2,82,30.06,6.2,SW,17.3,-,N/A,,Mostly Cloudy,220,2013-10-07 21:00:00
10:30 PM,62.6,57.2,82,30.06,6.2,SW,16.1,-,N/A,Rain,Light Rain,230,2013-10-07 21:30:00
11:00 PM,60.8,59.0,94,30.09,6.2,WSW,13.8,-,N/A,,Mostly Cloudy,250,2013-10-07 22:00:00
11:30 PM,60.8,57.2,88,30.09,6.2,WSW,12.7,-,N/A,,Mostly Cloudy,240,2013-10-07 22:30:00